PRIVATE WETTERSTATION BILLIGHEIM-ALLFELD                       ZURCK
Wetterdaten: Freitag, 28.03.2014
Datum Zeit Temp. A. Temp. A. min Temp. A. max Feuchte A. Luftdruck Regen Wind Richtung Richtung Sonnenschein ET Solar Taupunkt Windchill Windben Empfang
28.03.2014 00:00 6,4 C 6,4 C 6,8 C 70 % 1012,0 hPa 0,0 l/m 1,6 km/h (1 Bft) N-NW 337 0 min 0,025 mm 0 W/m 1,3 C 6,4 C 4,8 km/h (1 Bft) 100 %
28.03.2014 00:10 6,0 C 6,0 C 6,4 C 71 % 1012,1 hPa 0,0 l/m 0,0 km/h (0 Bft) N 360 0 min 0,000 mm 0 W/m 1,1 C 6,0 C 1,6 km/h (1 Bft) 100 %
28.03.2014 00:20 5,8 C 5,8 C 6,0 C 73 % 1012,1 hPa 0,0 l/m 0,0 km/h (0 Bft) N 360 0 min 0,000 mm 0 W/m 1,3 C 5,8 C 3,2 km/h (1 Bft) 100 %
28.03.2014 00:30 5,7 C 5,7 C 5,8 C 74 % 1012,1 hPa 0,0 l/m 0,0 km/h (0 Bft) N-NO 22 0 min 0,000 mm 0 W/m 1,4 C 5,7 C 3,2 km/h (1 Bft) 100 %
28.03.2014 00:40 5,7 C 5,7 C 5,7 C 74 % 1012,2 hPa 0,0 l/m 0,0 km/h (0 Bft) N-NO 22 0 min 0,000 mm 0 W/m 1,4 C 5,7 C 4,8 km/h (1 Bft) 100 %
28.03.2014 00:50 5,8 C 5,7 C 5,8 C 74 % 1012,1 hPa 0,0 l/m 0,0 km/h (0 Bft) N-NO 22 0 min 0,000 mm 0 W/m 1,5 C 5,8 C 1,6 km/h (1 Bft) 99 %
28.03.2014 01:00 5,8 C 5,8 C 5,8 C 73 % 1012,3 hPa 0,0 l/m 0,0 km/h (0 Bft) N-NO 22 0 min 0,025 mm 0 W/m 1,3 C 5,8 C 3,2 km/h (1 Bft) 100 %
28.03.2014 01:10 5,8 C 5,8 C 5,8 C 74 % 1012,2 hPa 0,0 l/m 0,0 km/h (0 Bft) N-NO 22 0 min 0,000 mm 0 W/m 1,5 C 5,8 C 3,2 km/h (1 Bft) 100 %
28.03.2014 01:20 5,7 C 5,7 C 5,8 C 74 % 1012,2 hPa 0,0 l/m 0,0 km/h (0 Bft) N-NO 22 0 min 0,000 mm 0 W/m 1,4 C 5,7 C 3,2 km/h (1 Bft) 100 %
28.03.2014 01:30 5,6 C 5,6 C 5,7 C 74 % 1012,2 hPa 0,0 l/m 0,0 km/h (0 Bft) N-NO 22 0 min 0,000 mm 0 W/m 1,3 C 5,6 C 3,2 km/h (1 Bft) 100 %
28.03.2014 01:40 5,6 C 5,6 C 5,6 C 74 % 1012,3 hPa 0,0 l/m 0,0 km/h (0 Bft) N-NO 22 0 min 0,000 mm 0 W/m 1,3 C 5,6 C 4,8 km/h (1 Bft) 100 %
28.03.2014 01:50 5,6 C 5,6 C 5,6 C 74 % 1012,5 hPa 0,0 l/m 0,0 km/h (0 Bft) N-NO 22 0 min 0,000 mm 0 W/m 1,3 C 5,6 C 4,8 km/h (1 Bft) 100 %
28.03.2014 02:00 5,4 C 5,4 C 5,6 C 74 % 1012,5 hPa 0,0 l/m 0,0 km/h (0 Bft) N-NO 22 0 min 0,025 mm 0 W/m 1,1 C 5,4 C 3,2 km/h (1 Bft) 100 %
28.03.2014 02:10 5,3 C 5,3 C 5,4 C 75 % 1012,4 hPa 0,0 l/m 0,0 km/h (0 Bft) N-NO 22 0 min 0,000 mm 0 W/m 1,2 C 5,3 C 3,2 km/h (1 Bft) 100 %
28.03.2014 02:20 5,2 C 5,2 C 5,3 C 76 % 1012,5 hPa 0,0 l/m 0,0 km/h (0 Bft) N 360 0 min 0,000 mm 0 W/m 1,3 C 5,2 C 3,2 km/h (1 Bft) 87 %
28.03.2014 02:30 5,1 C 5,1 C 5,2 C 76 % 1012,7 hPa 0,0 l/m 0,0 km/h (0 Bft) N 360 0 min 0,000 mm 0 W/m 1,2 C 5,1 C 1,6 km/h (1 Bft) 100 %
28.03.2014 02:40 4,9 C 4,9 C 5,1 C 77 % 1012,6 hPa 0,0 l/m 0,0 km/h (0 Bft) N 360 0 min 0,000 mm 0 W/m 1,2 C 4,9 C 1,6 km/h (1 Bft) 100 %
28.03.2014 02:50 4,8 C 4,8 C 4,9 C 77 % 1012,7 hPa 0,0 l/m 0,0 km/h (0 Bft) N 360 0 min 0,000 mm 0 W/m 1,1 C 4,8 C 3,2 km/h (1 Bft) 100 %
28.03.2014 03:00 4,5 C 4,5 C 4,8 C 77 % 1012,8 hPa 0,0 l/m 0,0 km/h (0 Bft) N 360 0 min 0,025 mm 0 W/m 0,8 C 4,5 C 1,6 km/h (1 Bft) 100 %
28.03.2014 03:10 4,3 C 4,3 C 4,5 C 78 % 1012,8 hPa 0,0 l/m 0,0 km/h (0 Bft) N 360 0 min 0,000 mm 0 W/m 0,8 C 4,3 C 1,6 km/h (1 Bft) 100 %
28.03.2014 03:20 4,1 C 4,1 C 4,3 C 79 % 1012,9 hPa 0,0 l/m 0,0 km/h (0 Bft) N 360 0 min 0,000 mm 0 W/m 0,8 C 4,1 C 1,6 km/h (1 Bft) 100 %
28.03.2014 03:30 3,8 C 3,8 C 4,1 C 79 % 1013,0 hPa 0,0 l/m 0,0 km/h (0 Bft) N 360 0 min 0,000 mm 0 W/m 0,5 C 3,8 C 3,2 km/h (1 Bft) 100 %
28.03.2014 03:40 3,7 C 3,7 C 3,8 C 80 % 1013,0 hPa 0,0 l/m 0,0 km/h (0 Bft) N 360 0 min 0,000 mm 0 W/m 0,6 C 3,7 C 1,6 km/h (1 Bft) 100 %
28.03.2014 03:50 3,6 C 3,6 C 3,7 C 81 % 1013,1 hPa 0,0 l/m 0,0 km/h (0 Bft) N 360 0 min 0,000 mm 0 W/m 0,7 C 3,6 C 1,6 km/h (1 Bft) 99 %
28.03.2014 04:00 3,6 C 3,6 C 3,6 C 81 % 1013,3 hPa 0,0 l/m 0,0 km/h (0 Bft) N 360 0 min 0,000 mm 0 W/m 0,7 C 3,6 C 3,2 km/h (1 Bft) 100 %
28.03.2014 04:10 3,6 C 3,6 C 3,6 C 82 % 1013,4 hPa 0,0 l/m 1,6 km/h (1 Bft) N-NO 22 0 min 0,000 mm 0 W/m 0,8 C 3,6 C 4,8 km/h (1 Bft) 100 %
28.03.2014 04:20 3,6 C 3,6 C 3,7 C 82 % 1013,4 hPa 0,0 l/m 0,0 km/h (0 Bft) N-NO 22 0 min 0,000 mm 0 W/m 0,8 C 3,6 C 4,8 km/h (1 Bft) 100 %
28.03.2014 04:30 3,6 C 3,6 C 3,7 C 81 % 1013,4 hPa 0,0 l/m 0,0 km/h (0 Bft) N-NO 22 0 min 0,000 mm 0 W/m 0,7 C 3,6 C 3,2 km/h (1 Bft) 100 %
28.03.2014 04:40 3,6 C 3,6 C 3,7 C 81 % 1013,5 hPa 0,0 l/m 0,0 km/h (0 Bft) N 360 0 min 0,000 mm 0 W/m 0,7 C 3,6 C 4,8 km/h (1 Bft) 99 %
28.03.2014 04:50 3,7 C 3,5 C 3,7 C 82 % 1013,6 hPa 0,0 l/m 1,6 km/h (1 Bft) N-NO 22 0 min 0,000 mm 0 W/m 0,9 C 3,7 C 6,4 km/h (2 Bft) 100 %
28.03.2014 05:00 4,5 C 3,7 C 4,5 C 80 % 1013,6 hPa 0,0 l/m 4,8 km/h (1 Bft) NO 45 0 min 0,000 mm 0 W/m 1,4 C 4,5 C 11,3 km/h (2 Bft) 100 %
28.03.2014 05:10 5,0 C 4,5 C 5,0 C 78 % 1013,7 hPa 0,0 l/m 4,8 km/h (1 Bft) NO 45 0 min 0,000 mm 0 W/m 1,5 C 5,0 C 8,0 km/h (2 Bft) 100 %
28.03.2014 05:20 5,2 C 5,0 C 5,2 C 77 % 1013,7 hPa 0,0 l/m 3,2 km/h (1 Bft) NO 45 0 min 0,000 mm 0 W/m 1,5 C 5,2 C 9,7 km/h (2 Bft) 100 %
28.03.2014 05:30 5,1 C 5,1 C 5,2 C 77 % 1013,7 hPa 0,0 l/m 3,2 km/h (1 Bft) NO 45 0 min 0,000 mm 0 W/m 1,4 C 5,1 C 8,0 km/h (2 Bft) 100 %
28.03.2014 05:40 4,8 C 4,8 C 5,1 C 77 % 1013,9 hPa 0,0 l/m 1,6 km/h (1 Bft) NO 45 0 min 0,000 mm 0 W/m 1,1 C 4,8 C 8,0 km/h (2 Bft) 100 %
28.03.2014 05:50 4,6 C 4,6 C 4,9 C 78 % 1013,9 hPa 0,0 l/m 1,6 km/h (1 Bft) N-NO 22 0 min 0,000 mm 0 W/m 1,1 C 4,6 C 6,4 km/h (2 Bft) 92 %
28.03.2014 06:00 4,4 C 4,4 C 4,6 C 78 % 1014,0 hPa 0,0 l/m 0,0 km/h (0 Bft) N-NO 22 0 min 0,000 mm 0 W/m 0,9 C 4,4 C 3,2 km/h (1 Bft) 100 %
28.03.2014 06:10 4,3 C 4,3 C 4,4 C 79 % 1014,2 hPa 0,0 l/m 1,6 km/h (1 Bft) N-NO 22 0 min 0,000 mm 0 W/m 1,0 C 4,3 C 4,8 km/h (1 Bft) 100 %
28.03.2014 06:20 4,3 C 4,3 C 4,3 C 79 % 1014,4 hPa 0,0 l/m 0,0 km/h (0 Bft) N-NO 22 0 min 0,000 mm 5 W/m 1,0 C 4,3 C 4,8 km/h (1 Bft) 100 %
28.03.2014 06:30 4,2 C 4,2 C 4,3 C 79 % 1014,4 hPa 0,0 l/m 1,6 km/h (1 Bft) NO 45 0 min 0,000 mm 7 W/m 0,9 C 4,2 C 4,8 km/h (1 Bft) 100 %
28.03.2014 06:40 4,1 C 4,1 C 4,2 C 80 % 1014,4 hPa 0,0 l/m 1,6 km/h (1 Bft) N-NO 22 0 min 0,000 mm 11 W/m 1,0 C 4,1 C 4,8 km/h (1 Bft) 100 %
28.03.2014 06:50 4,1 C 4,1 C 4,1 C 80 % 1014,5 hPa 0,0 l/m 1,6 km/h (1 Bft) N-NO 22 0 min 0,000 mm 14 W/m 1,0 C 4,1 C 6,4 km/h (2 Bft) 100 %
28.03.2014 07:00 4,2 C 4,1 C 4,2 C 80 % 1014,6 hPa 0,0 l/m 1,6 km/h (1 Bft) NO 45 0 min 0,000 mm 25 W/m 1,1 C 4,2 C 4,8 km/h (1 Bft) 100 %
28.03.2014 07:10 4,4 C 4,3 C 4,4 C 80 % 1014,6 hPa 0,0 l/m 1,6 km/h (1 Bft) NO 45 0 min 0,000 mm 23 W/m 1,3 C 4,4 C 8,0 km/h (2 Bft) 100 %
28.03.2014 07:20 4,8 C 4,4 C 4,8 C 79 % 1014,7 hPa 0,0 l/m 3,2 km/h (1 Bft) NO 45 0 min 0,000 mm 33 W/m 1,5 C 4,8 C 14,5 km/h (3 Bft) 100 %
28.03.2014 07:30 5,4 C 4,8 C 5,4 C 77 % 1014,8 hPa 0,0 l/m 3,2 km/h (1 Bft) NO 45 0 min 0,000 mm 137 W/m 1,7 C 5,4 C 9,7 km/h (2 Bft) 100 %
28.03.2014 07:40 6,1 C 5,4 C 6,1 C 75 % 1014,8 hPa 0,0 l/m 3,2 km/h (1 Bft) NO 45 10 min 0,000 mm 179 W/m 2,0 C 6,1 C 11,3 km/h (2 Bft) 99 %
28.03.2014 07:50 6,7 C 6,1 C 6,7 C 73 % 1014,8 hPa 0,0 l/m 1,6 km/h (1 Bft) NO 45 10 min 0,000 mm 206 W/m 2,2 C 6,7 C 14,5 km/h (3 Bft) 90 %
28.03.2014 08:00 7,3 C 6,7 C 7,3 C 71 % 1015,0 hPa 0,0 l/m 1,6 km/h (1 Bft) NO 45 10 min 0,051 mm 232 W/m 2,4 C 7,3 C 9,7 km/h (2 Bft) 100 %
28.03.2014 08:10 7,7 C 7,3 C 7,7 C 69 % 1015,1 hPa 0,0 l/m 3,2 km/h (1 Bft) NO 45 10 min 0,000 mm 260 W/m 2,4 C 7,7 C 11,3 km/h (2 Bft) 100 %
28.03.2014 08:20 8,0 C 7,7 C 8,0 C 69 % 1015,2 hPa 0,0 l/m 1,6 km/h (1 Bft) NO 45 10 min 0,000 mm 288 W/m 2,7 C 8,0 C 14,5 km/h (3 Bft) 100 %
28.03.2014 08:30 8,4 C 8,1 C 8,4 C 67 % 1015,2 hPa 0,0 l/m 1,6 km/h (1 Bft) NO 45 10 min 0,000 mm 313 W/m 2,6 C 8,4 C 9,7 km/h (2 Bft) 99 %
28.03.2014 08:40 8,8 C 8,4 C 8,8 C 67 % 1015,4 hPa 0,0 l/m 1,6 km/h (1 Bft) NO 45 10 min 0,000 mm 339 W/m 3,0 C 8,8 C 9,7 km/h (2 Bft) 100 %
28.03.2014 08:50 9,2 C 8,8 C 9,2 C 66 % 1015,3 hPa 0,0 l/m 1,6 km/h (1 Bft) NO 45 10 min 0,000 mm 364 W/m 3,2 C 9,2 C 6,4 km/h (2 Bft) 100 %
28.03.2014 09:00 9,8 C 9,2 C 9,8 C 65 % 1015,4 hPa 0,0 l/m 1,6 km/h (1 Bft) NO 45 10 min 0,152 mm 387 W/m 3,5 C 9,8 C 16,1 km/h (3 Bft) 100 %
28.03.2014 09:10 10,2 C 9,8 C 10,2 C 63 % 1015,4 hPa 0,0 l/m 3,2 km/h (1 Bft) NO 45 10 min 0,000 mm 411 W/m 3,5 C 10,2 C 14,5 km/h (3 Bft) 100 %
28.03.2014 09:20 10,4 C 10,2 C 10,4 C 62 % 1015,4 hPa 0,0 l/m 1,6 km/h (1 Bft) NO 45 10 min 0,000 mm 436 W/m 3,4 C 10,4 C 9,7 km/h (2 Bft) 100 %
28.03.2014 09:30 10,8 C 10,4 C 10,8 C 63 % 1015,5 hPa 0,0 l/m 1,6 km/h (1 Bft) NO 45 10 min 0,000 mm 459 W/m 4,0 C 10,8 C 9,7 km/h (2 Bft) 100 %
28.03.2014 09:40 11,1 C 10,8 C 11,1 C 60 % 1015,4 hPa 0,0 l/m 3,2 km/h (1 Bft) NO 45 10 min 0,000 mm 480 W/m 3,6 C 11,1 C 9,7 km/h (2 Bft) 100 %
28.03.2014 09:50 11,7 C 11,1 C 11,7 C 60 % 1015,4 hPa 0,0 l/m 1,6 km/h (1 Bft) NO 45 10 min 0,000 mm 503 W/m 4,2 C 11,7 C 16,1 km/h (3 Bft) 100 %
28.03.2014 10:00 12,3 C 11,7 C 12,3 C 59 % 1015,6 hPa 0,0 l/m 3,2 km/h (1 Bft) NO 45 10 min 0,229 mm 519 W/m 4,5 C 12,3 C 9,7 km/h (2 Bft) 100 %
28.03.2014 10:10 12,8 C 12,3 C 12,8 C 57 % 1015,6 hPa 0,0 l/m 1,6 km/h (1 Bft) O-SO 112 10 min 0,000 mm 538 W/m 4,5 C 12,8 C 6,4 km/h (2 Bft) 100 %
28.03.2014 10:20 13,6 C 12,8 C 13,6 C 55 % 1015,5 hPa 0,0 l/m 0,0 km/h (0 Bft) NO 45 10 min 0,000 mm 557 W/m 4,7 C 13,6 C 4,8 km/h (1 Bft) 100 %
28.03.2014 10:30 13,8 C 13,6 C 13,8 C 53 % 1015,6 hPa 0,0 l/m 3,2 km/h (1 Bft) O 90 10 min 0,000 mm 577 W/m 4,4 C 13,8 C 16,1 km/h (3 Bft) 100 %
28.03.2014 10:40 14,1 C 13,8 C 14,1 C 52 % 1015,6 hPa 0,0 l/m 1,6 km/h (1 Bft) O-SO 112 10 min 0,000 mm 594 W/m 4,4 C 14,1 C 17,7 km/h (3 Bft) 100 %
28.03.2014 10:50 14,4 C 14,1 C 14,4 C 54 % 1015,7 hPa 0,0 l/m 3,2 km/h (1 Bft) NO 45 10 min 0,000 mm 610 W/m 5,2 C 14,4 C 12,9 km/h (3 Bft) 100 %
28.03.2014 11:00 14,8 C 14,4 C 14,8 C 52 % 1015,6 hPa 0,0 l/m 1,6 km/h (1 Bft) NO 45 10 min 0,305 mm 615 W/m 5,0 C 14,8 C 11,3 km/h (2 Bft) 100 %
28.03.2014 11:10 14,8 C 14,8 C 14,9 C 53 % 1015,6 hPa 0,0 l/m 1,6 km/h (1 Bft) NO 45 10 min 0,000 mm 629 W/m 5,3 C 14,8 C 11,3 km/h (2 Bft) 100 %
28.03.2014 11:20 15,1 C 14,8 C 15,1 C 51 % 1015,6 hPa 0,0 l/m 1,6 km/h (1 Bft) O-NO 67 10 min 0,000 mm 642 W/m 5,0 C 15,1 C 9,7 km/h (2 Bft) 100 %
28.03.2014 11:30 15,4 C 15,1 C 15,4 C 52 % 1015,5 hPa 0,0 l/m 1,6 km/h (1 Bft) NO 45 10 min 0,000 mm 654 W/m 5,6 C 15,4 C 9,7 km/h (2 Bft) 99 %
28.03.2014 11:40 15,6 C 15,4 C 15,6 C 51 % 1015,4 hPa 0,0 l/m 1,6 km/h (1 Bft) NO 45 10 min 0,000 mm 663 W/m 5,5 C 15,6 C 9,7 km/h (2 Bft) 100 %
28.03.2014 11:50 15,6 C 15,5 C 15,6 C 52 % 1015,4 hPa 0,0 l/m 4,8 km/h (1 Bft) NO 45 10 min 0,000 mm 684 W/m 5,8 C 15,6 C 14,5 km/h (3 Bft) 100 %
28.03.2014 12:00 15,7 C 15,6 C 15,7 C 51 % 1015,4 hPa 0,0 l/m 3,2 km/h (1 Bft) NO 45 10 min 0,356 mm 677 W/m 5,6 C 15,7 C 11,3 km/h (2 Bft) 99 %
28.03.2014 12:10 16,0 C 15,7 C 16,0 C 49 % 1015,4 hPa 0,0 l/m 3,2 km/h (1 Bft) NO 45 10 min 0,000 mm 680 W/m 5,3 C 16,0 C 16,1 km/h (3 Bft) 100 %
28.03.2014 12:20 16,1 C 16,0 C 16,1 C 47 % 1015,4 hPa 0,0 l/m 3,2 km/h (1 Bft) NO 45 10 min 0,000 mm 684 W/m 4,8 C 16,1 C 9,7 km/h (2 Bft) 100 %
28.03.2014 12:30 16,2 C 16,1 C 16,2 C 48 % 1015,3 hPa 0,0 l/m 3,2 km/h (1 Bft) NO 45 10 min 0,000 mm 664 W/m 5,2 C 16,2 C 11,3 km/h (2 Bft) 100 %
28.03.2014 12:40 16,2 C 16,2 C 16,2 C 47 % 1015,4 hPa 0,0 l/m 3,2 km/h (1 Bft) NO 45 10 min 0,000 mm 663 W/m 4,9 C 16,2 C 16,1 km/h (3 Bft) 100 %
28.03.2014 12:50 16,3 C 16,2 C 16,3 C 47 % 1015,3 hPa 0,0 l/m 3,2 km/h (1 Bft) NO 45 10 min 0,000 mm 668 W/m 5,0 C 16,3 C 20,9 km/h (4 Bft) 100 %
28.03.2014 13:00 16,7 C 16,3 C 16,7 C 48 % 1015,3 hPa 0,0 l/m 1,6 km/h (1 Bft) NO 45 10 min 0,381 mm 661 W/m 5,6 C 16,7 C 16,1 km/h (3 Bft) 100 %
28.03.2014 13:10 16,8 C 16,7 C 16,8 C 47 % 1015,3 hPa 0,0 l/m 3,2 km/h (1 Bft) NO 45 10 min 0,000 mm 668 W/m 5,4 C 16,8 C 11,3 km/h (2 Bft) 100 %
28.03.2014 13:20 16,7 C 16,7 C 16,8 C 45 % 1015,3 hPa 0,0 l/m 4,8 km/h (1 Bft) O-NO 67 10 min 0,000 mm 666 W/m 4,7 C 16,7 C 17,7 km/h (3 Bft) 100 %
28.03.2014 13:30 17,0 C 16,7 C 17,0 C 42 % 1015,2 hPa 0,0 l/m 1,6 km/h (1 Bft) O 90 10 min 0,000 mm 663 W/m 4,0 C 17,0 C 11,3 km/h (2 Bft) 100 %
28.03.2014 13:40 17,3 C 17,0 C 17,3 C 41 % 1015,0 hPa 0,0 l/m 1,6 km/h (1 Bft) O 90 10 min 0,000 mm 649 W/m 3,9 C 17,3 C 8,0 km/h (2 Bft) 100 %
28.03.2014 13:50 17,4 C 17,3 C 17,4 C 42 % 1015,0 hPa 0,0 l/m 3,2 km/h (1 Bft) NO 45 10 min 0,000 mm 649 W/m 4,4 C 17,4 C 11,3 km/h (2 Bft) 100 %
28.03.2014 14:00 16,9 C 16,9 C 17,4 C 43 % 1015,0 hPa 0,0 l/m 4,8 km/h (1 Bft) NO 45 10 min 0,356 mm 635 W/m 4,2 C 16,9 C 11,3 km/h (2 Bft) 100 %
28.03.2014 14:10 16,8 C 16,7 C 16,9 C 44 % 1015,0 hPa 0,0 l/m 3,2 km/h (1 Bft) NO 45 10 min 0,000 mm 636 W/m 4,5 C 16,8 C 12,9 km/h (3 Bft) 100 %
28.03.2014 14:20 16,8 C 16,8 C 16,9 C 43 % 1015,0 hPa 0,0 l/m 0,0 km/h (0 Bft) NO 45 10 min 0,000 mm 638 W/m 4,2 C 16,8 C 9,7 km/h (2 Bft) 100 %
28.03.2014 14:30 16,9 C 16,8 C 17,1 C 42 % 1015,1 hPa 0,0 l/m 1,6 km/h (1 Bft) O-SO 112 10 min 0,000 mm 668 W/m 3,9 C 16,9 C 14,5 km/h (3 Bft) 99 %
28.03.2014 14:40 17,1 C 16,8 C 17,1 C 45 % 1014,8 hPa 0,0 l/m 3,2 km/h (1 Bft) NO 45 10 min 0,000 mm 612 W/m 5,1 C 17,1 C 11,3 km/h (2 Bft) 100 %
28.03.2014 14:50 17,4 C 17,1 C 17,4 C 41 % 1014,8 hPa 0,0 l/m 3,2 km/h (1 Bft) NO 45 10 min 0,000 mm 564 W/m 4,0 C 17,4 C 17,7 km/h (3 Bft) 100 %
28.03.2014 15:00 17,6 C 17,4 C 17,6 C 42 % 1014,8 hPa 0,0 l/m 1,6 km/h (1 Bft) NO 45 10 min 0,279 mm 561 W/m 4,5 C 17,6 C 17,7 km/h (3 Bft) 100 %
28.03.2014 15:10 17,5 C 17,4 C 17,6 C 42 % 1014,8 hPa 0,0 l/m 1,6 km/h (1 Bft) O 90 10 min 0,000 mm 522 W/m 4,4 C 17,5 C 16,1 km/h (3 Bft) 100 %
28.03.2014 15:20 17,6 C 17,4 C 17,6 C 41 % 1014,8 hPa 0,0 l/m 1,6 km/h (1 Bft) NO 45 10 min 0,000 mm 504 W/m 4,2 C 17,6 C 11,3 km/h (2 Bft) 100 %
28.03.2014 15:30 17,8 C 17,6 C 17,8 C 41 % 1014,7 hPa 0,0 l/m 1,6 km/h (1 Bft) NO 45 10 min 0,000 mm 504 W/m 4,4 C 17,8 C 9,7 km/h (2 Bft) 100 %
28.03.2014 15:40 17,6 C 17,6 C 17,8 C 39 % 1014,7 hPa 0,0 l/m 1,6 km/h (1 Bft) NO 45 10 min 0,000 mm 445 W/m 3,5 C 17,6 C 14,5 km/h (3 Bft) 89 %
28.03.2014 15:50 17,3 C 17,3 C 17,6 C 41 % 1014,7 hPa 0,0 l/m 0,0 km/h (0 Bft) O-NO 67 0 min 0,000 mm 121 W/m 3,9 C 17,3 C 9,7 km/h (2 Bft) 99 %
28.03.2014 16:00 17,2 C 17,2 C 17,4 C 41 % 1014,8 hPa 0,0 l/m 0,0 km/h (0 Bft) NO 45 0 min 0,203 mm 91 W/m 3,8 C 17,2 C 8,0 km/h (2 Bft) 99 %
28.03.2014 16:10 17,1 C 17,1 C 17,2 C 42 % 1014,8 hPa 0,0 l/m 0,0 km/h (0 Bft) NO 45 0 min 0,000 mm 84 W/m 4,1 C 17,1 C 8,0 km/h (2 Bft) 100 %
28.03.2014 16:20 17,1 C 17,1 C 17,1 C 40 % 1014,9 hPa 0,0 l/m 1,6 km/h (1 Bft) NO 45 0 min 0,000 mm 88 W/m 3,4 C 17,1 C 11,3 km/h (2 Bft) 100 %
28.03.2014 16:30 16,8 C 16,8 C 17,1 C 40 % 1014,8 hPa 0,0 l/m 1,6 km/h (1 Bft) NO 45 0 min 0,000 mm 79 W/m 3,1 C 16,8 C 11,3 km/h (2 Bft) 100 %
28.03.2014 16:40 16,7 C 16,7 C 16,8 C 40 % 1014,9 hPa 0,0 l/m 0,0 km/h (0 Bft) NO 45 0 min 0,000 mm 65 W/m 3,0 C 16,7 C 9,7 km/h (2 Bft) 99 %
28.03.2014 16:50 16,5 C 16,5 C 16,8 C 41 % 1014,9 hPa 0,0 l/m 1,3 km/h (1 Bft) N-NO 28 0 min 0,000 mm 62 W/m 3,2 C 16,5 C 11,3 km/h (2 Bft) 98 %
28.03.2014 17:00 16,2 C 16,2 C 16,5 C 42 % 1015,0 hPa 0,0 l/m 1,5 km/h (1 Bft) NO 39 0 min 0,026 mm 58 W/m 3,3 C 16,2 C 16,1 km/h (3 Bft) 99 %
28.03.2014 17:10 15,7 C 15,7 C 16,2 C 43 % 1015,0 hPa 0,0 l/m 4,1 km/h (1 Bft) N-NO 31 0 min 0,000 mm 67 W/m 3,2 C 15,7 C 9,7 km/h (2 Bft) 99 %
28.03.2014 17:20 15,2 C 15,2 C 15,7 C 45 % 1015,1 hPa 0,0 l/m 2,2 km/h (1 Bft) N-NO 21 0 min 0,000 mm 42 W/m 3,4 C 15,2 C 8,0 km/h (2 Bft) 99 %
28.03.2014 17:30 15,1 C 15,1 C 15,2 C 44 % 1015,1 hPa 0,0 l/m 0,5 km/h (0 Bft) O-NO 78 0 min 0,000 mm 30 W/m 2,9 C 15,1 C 8,0 km/h (2 Bft) 100 %
28.03.2014 17:40 15,1 C 15,0 C 15,1 C 44 % 1015,2 hPa 0,0 l/m 1,0 km/h (0 Bft) O 82 0 min 0,000 mm 32 W/m 2,9 C 15,1 C 8,0 km/h (2 Bft) 100 %
28.03.2014 17:50 14,7 C 14,7 C 15,1 C 44 % 1015,3 hPa 0,0 l/m 0,6 km/h (0 Bft) O-NO 57 0 min 0,000 mm 30 W/m 2,6 C 14,7 C 6,4 km/h (2 Bft) 100 %
28.03.2014 18:00 14,4 C 14,4 C 14,7 C 45 % 1015,4 hPa 0,0 l/m 0,8 km/h (0 Bft) O 80 0 min 0,051 mm 19 W/m 2,6 C 14,4 C 9,7 km/h (2 Bft) 100 %
28.03.2014 18:10 14,0 C 14,0 C 14,4 C 48 % 1015,5 hPa 0,0 l/m 3,3 km/h (1 Bft) NO 40 0 min 0,000 mm 7 W/m 3,2 C 14,0 C 9,7 km/h (2 Bft) 100 %
28.03.2014 18:20 13,5 C 13,5 C 14,0 C 51 % 1015,6 hPa 0,0 l/m 2,4 km/h (1 Bft) NO 41 0 min 0,000 mm 0 W/m 3,6 C 13,5 C 6,4 km/h (2 Bft) 100 %
28.03.2014 18:30 13,0 C 13,0 C 13,5 C 52 % 1015,7 hPa 0,0 l/m 3,0 km/h (1 Bft) NO 40 0 min 0,000 mm 0 W/m 3,4 C 13,0 C 6,4 km/h (2 Bft) 100 %
28.03.2014 18:40 12,6 C 12,6 C 13,0 C 54 % 1015,7 hPa 0,0 l/m 1,1 km/h (1 Bft) N-NW 344 0 min 0,000 mm 0 W/m 3,5 C 12,6 C 6,4 km/h (2 Bft) 91 %
28.03.2014 18:50 12,1 C 12,1 C 12,6 C 56 % 1015,9 hPa 0,0 l/m 1,9 km/h (1 Bft) NO 40 0 min 0,000 mm 0 W/m 3,6 C 12,1 C 6,4 km/h (2 Bft) 100 %
28.03.2014 19:00 11,8 C 11,8 C 12,1 C 56 % 1016,1 hPa 0,0 l/m 2,1 km/h (1 Bft) NO 40 0 min 0,026 mm 0 W/m 3,3 C 11,8 C 6,4 km/h (2 Bft) 100 %
28.03.2014 19:10 11,8 C 11,7 C 11,8 C 56 % 1016,3 hPa 0,0 l/m 4,1 km/h (1 Bft) O-NO 62 0 min 0,000 mm 0 W/m 3,3 C 11,8 C 12,9 km/h (3 Bft) 99 %
28.03.2014 19:20 11,7 C 11,7 C 11,8 C 55 % 1016,5 hPa 0,0 l/m 3,7 km/h (1 Bft) NO 40 0 min 0,000 mm 0 W/m 3,0 C 11,7 C 9,7 km/h (2 Bft) 98 %
28.03.2014 19:30 11,6 C 11,6 C 11,7 C 56 % 1016,6 hPa 0,0 l/m 2,6 km/h (1 Bft) O-NO 59 0 min 0,000 mm 0 W/m 3,1 C 11,6 C 6,4 km/h (2 Bft) 98 %
28.03.2014 19:40 11,4 C 11,4 C 11,6 C 56 % 1016,8 hPa 0,0 l/m 4,0 km/h (1 Bft) O-NO 63 0 min 0,000 mm 0 W/m 2,9 C 11,4 C 14,5 km/h (3 Bft) 97 %
28.03.2014 19:50 11,2 C 11,2 C 11,4 C 57 % 1017,0 hPa 0,0 l/m 1,3 km/h (1 Bft) N-NO 26 0 min 0,000 mm 0 W/m 3,0 C 11,2 C 8,0 km/h (2 Bft) 97 %
28.03.2014 20:00 10,9 C 10,9 C 11,2 C 58 % 1017,1 hPa 0,0 l/m 2,2 km/h (1 Bft) N-NO 32 0 min 0,050 mm 0 W/m 3,0 C 10,9 C 9,7 km/h (2 Bft) 98 %
28.03.2014 20:10 10,7 C 10,7 C 10,9 C 58 % 1017,4 hPa 0,0 l/m 1,8 km/h (1 Bft) NO 37 0 min 0,000 mm 0 W/m 2,8 C 10,7 C 8,0 km/h (2 Bft) 98 %
28.03.2014 20:20 10,6 C 10,6 C 10,7 C 59 % 1017,5 hPa 0,0 l/m 2,0 km/h (1 Bft) NO 44 0 min 0,000 mm 0 W/m 2,9 C 10,6 C 6,4 km/h (2 Bft) 98 %
28.03.2014 20:30 10,4 C 10,4 C 10,6 C 59 % 1017,6 hPa 0,0 l/m 2,4 km/h (1 Bft) NO 46 0 min 0,000 mm 0 W/m 2,7 C 10,4 C 12,9 km/h (3 Bft) 98 %
28.03.2014 20:40 10,3 C 10,3 C 10,4 C 59 % 1017,8 hPa 0,0 l/m 2,6 km/h (1 Bft) NO 48 0 min 0,000 mm 0 W/m 2,6 C 10,3 C 6,4 km/h (2 Bft) 97 %
28.03.2014 20:50 10,2 C 10,2 C 10,3 C 60 % 1017,8 hPa 0,0 l/m 3,2 km/h (1 Bft) N-NO 32 0 min 0,000 mm 0 W/m 2,8 C 10,2 C 9,7 km/h (2 Bft) 98 %
28.03.2014 21:00 10,1 C 10,1 C 10,2 C 60 % 1017,9 hPa 0,0 l/m 2,6 km/h (1 Bft) NO 44 0 min 0,026 mm 0 W/m 2,7 C 10,1 C 11,3 km/h (2 Bft) 97 %
28.03.2014 21:10 10,0 C 10,0 C 10,1 C 60 % 1017,9 hPa 0,0 l/m 3,2 km/h (1 Bft) NO 45 0 min 0,000 mm 0 W/m 2,6 C 10,0 C 9,7 km/h (2 Bft) 100 %
28.03.2014 21:20 9,8 C 9,8 C 10,0 C 61 % 1018,0 hPa 0,0 l/m 3,2 km/h (1 Bft) NO 45 0 min 0,000 mm 0 W/m 2,6 C 9,8 C 11,3 km/h (2 Bft) 99 %
28.03.2014 21:30 9,7 C 9,7 C 9,8 C 62 % 1018,2 hPa 0,0 l/m 3,2 km/h (1 Bft) NO 45 0 min 0,000 mm 0 W/m 2,8 C 9,7 C 11,3 km/h (2 Bft) 100 %
28.03.2014 21:40 9,6 C 9,6 C 9,7 C 62 % 1018,2 hPa 0,0 l/m 1,6 km/h (1 Bft) NO 45 0 min 0,000 mm 0 W/m 2,7 C 9,6 C 9,7 km/h (2 Bft) 100 %
28.03.2014 21:50 9,5 C 9,4 C 9,6 C 63 % 1018,1 hPa 0,0 l/m 1,6 km/h (1 Bft) NO 45 0 min 0,000 mm 0 W/m 2,8 C 9,5 C 8,0 km/h (2 Bft) 100 %
28.03.2014 22:00 9,3 C 9,3 C 9,4 C 63 % 1018,4 hPa 0,0 l/m 1,6 km/h (1 Bft) NO 45 0 min 0,025 mm 0 W/m 2,6 C 9,3 C 9,7 km/h (2 Bft) 99 %
28.03.2014 22:10 9,3 C 9,3 C 9,3 C 63 % 1018,4 hPa 0,0 l/m 3,2 km/h (1 Bft) NO 45 0 min 0,000 mm 0 W/m 2,6 C 9,3 C 17,7 km/h (3 Bft) 99 %
28.03.2014 22:20 9,1 C 9,1 C 9,3 C 64 % 1018,4 hPa 0,0 l/m 1,6 km/h (1 Bft) NO 45 0 min 0,000 mm 0 W/m 2,7 C 9,1 C 16,1 km/h (3 Bft) 100 %
28.03.2014 22:30 8,9 C 8,9 C 9,1 C 65 % 1018,5 hPa 0,0 l/m 1,6 km/h (1 Bft) NO 45 0 min 0,000 mm 0 W/m 2,7 C 8,9 C 8,0 km/h (2 Bft) 100 %
28.03.2014 22:40 8,9 C 8,9 C 8,9 C 65 % 1018,6 hPa 0,0 l/m 1,6 km/h (1 Bft) NO 45 0 min 0,000 mm 0 W/m 2,7 C 8,9 C 11,3 km/h (2 Bft) 100 %
28.03.2014 22:50 8,8 C 8,8 C 8,9 C 65 % 1018,6 hPa 0,0 l/m 3,2 km/h (1 Bft) NO 45 0 min 0,000 mm 0 W/m 2,6 C 8,8 C 11,3 km/h (2 Bft) 100 %
28.03.2014 23:00 8,7 C 8,7 C 8,8 C 66 % 1018,7 hPa 0,0 l/m 3,2 km/h (1 Bft) NO 45 0 min 0,025 mm 0 W/m 2,7 C 8,7 C 11,3 km/h (2 Bft) 100 %
28.03.2014 23:10 8,6 C 8,6 C 8,7 C 66 % 1018,7 hPa 0,0 l/m 3,2 km/h (1 Bft) NO 45 0 min 0,000 mm 0 W/m 2,6 C 8,6 C 16,1 km/h (3 Bft) 91 %
28.03.2014 23:20 8,4 C 8,4 C 8,6 C 67 % 1018,7 hPa 0,0 l/m 1,6 km/h (1 Bft) NO 45 0 min 0,000 mm 0 W/m 2,6 C 8,4 C 11,3 km/h (2 Bft) 100 %
28.03.2014 23:30 8,3 C 8,3 C 8,4 C 67 % 1018,8 hPa 0,0 l/m 1,6 km/h (1 Bft) NO 45 0 min 0,000 mm 0 W/m 2,5 C 8,3 C 11,3 km/h (2 Bft) 100 %
28.03.2014 23:40 8,1 C 8,1 C 8,3 C 68 % 1018,9 hPa 0,0 l/m 1,6 km/h (1 Bft) NO 45 0 min 0,000 mm 0 W/m 2,6 C 8,1 C 19,3 km/h (3 Bft) 99 %
28.03.2014 23:50 7,9 C 7,9 C 8,1 C 69 % 1018,9 hPa 0,0 l/m 0,0 km/h (0 Bft) N-NO 22 0 min 0,000 mm 0 W/m 2,6 C 7,9 C 3,2 km/h (1 Bft) 100 %
_ Min-Zeit 04:50 04:50 04:00 15:40 00:00 - 00:10 - - - - - 03:30 03:50 00:10 02:20
Minimum _ 3,5 C 3,5 C 3,6 C 39 % 1012,0 hPa - 0,0 km/h (0 Bft) - - - - - 0,5 C 3,6 C 1,6 km/h (1 Bft) 87 %
_ Max-Zeit 15:30 15:30 15:30 04:10 23:40 00:00 05:00 - - 07:40 13:00 11:50 11:50 15:30 12:50 00:00
Maximum _ 17,8 C 17,6 C 17,8 C 82 % 1018,9 hPa 0,0 l/m 4,8 km/h
NO (1 Bft)
- - 10 min 0,381 mm 684 W/m 5,8 C 17,8 C 20,9 km/h
N-NO (4 Bft)
100 %
Durchschnitt _ 10,4 C 10,2 C 10,5 C 61 % 1015,1 hPa #0,0 l/m 1,7 km/h (1 Bft) NO - #8:10 h #2,641 mm 383 W/m 2,8 C 10,4 C 9,1 km/h (2 Bft) 99 %
PRIVATE WETTERSTATION BILLIGHEIM-ALLFELD - www.neckar-odenwald-wetter.de - Holger Sonntag